Location: ActonStarParty
(42.4766°N, 71.4538°W)
Time: 11:19:01
(UTC-04:00)

Cosmos 2297 - Pass Details

Date: 19 April 2018
Orbit: 835 x 859 km, 71.0° (Epoch: 26 May)

Event Time Altitude Azimuth Distance (km) Brightness Sun altitude
Rises 21:54:22 0° 338° (NNW) 3,409 8.0 -23.4°
Reaches altitude 10° 21:56:51 10° 341° (NNW) 2,474 7.0 -23.8°
Maximum altitude 22:02:30 64° 63° (ENE) 937 3.7 -24.5°
Enters shadow 22:03:12 59° 100° (E) 980 3.7 -24.6°
